Regional Weather Roundup
Issued by NWS Kansas City/Pleasant Hill, MO

Home | Current Version | Previous Version | Text Only | Print | Product List | Glossary On
Versions: 1 2 3 4 5 6 7 8 9 10 11 12 13 14 15 16 17 18 19 20 21 22 23 24 25 26 27 28
000
ASUS43 KEAX 242010
RWREAX

WEATHER ROUNDUP FOR EASTERN KANSAS AND NORTHWEST MISSOURI
NATIONAL WEATHER SERVICE KANSAS CITY/PLEASANT HILL MO
300 PM CDT MON APR 24 2017

KSZ040-057-103>105-MOZ028-029-037-043-242100-
...KANSAS CITY METROPOLITAN AREA...

CITY           SKY/WX    TMP DP  RH WIND       PRES   REMARKS
K.C. INTL      PTSUNNY   74  37  26 S24G36    29.66F
K.C. DOWNTOWN  SUNNY     75  37  25 S24G33    29.66F
LEES SUMMIT    SUNNY     74  35  24 S22G37    29.69F
OLATHE - IXD   SUNNY     73  37  27 S23G33    29.68F
OLATHE - OJC   SUNNY     72  40  31 SE23G32   29.67F
LAWRENCE       SUNNY     75  42  30 SE22G30   29.65F

$$

MOZ001>008-011>017-020>025-030>033-038>040-044>046-053-054-242100-
...NORTHERN AND CENTRAL MISSOURI...

CITY           SKY/WX    TMP DP  RH WIND       PRES   REMARKS
ST. JOSEPH     SUNNY     75  36  24 S25G36    29.63F
WHITEMAN AFB   MOSUNNY   75  31  20 S20G26    29.73F
CLINTON        MOSUNNY   75  37  25 S15G21    29.76S
SEDALIA        CLOUDY    77  33  20 S18G26    29.76F
WARSAW         NOT AVBL
CHILLICOTHE      N/A     76  31  19 S15G25    29.72F
KIRKSVILLE     SUNNY     75  28  17 S17G26    29.76F

$$

MOZ041-047>049-056>058-063>065-088>090-097-242100-
...EASTERN AND SOUTHERN MISSOURI...

CITY           SKY/WX    TMP DP  RH WIND       PRES   REMARKS
ST. LOUIS INTL MOSUNNY   76  30  18 SE12G17   29.81F
SPIRIT OF STL  MOSUNNY   76  33  21 SE8       29.79F
COLUMBIA       SUNNY     76  29  17 S16G26    29.76F
JEFFERSON CITY SUNNY     78  32  18 S14G23    29.76F
ROLLA          SUNNY     74  35  24 S10       29.78F
OSAGE BEACH    SUNNY     76  32  20 S13G23    29.78F
SPRINGFIELD    SUNNY     74  31  20 SE16      29.78F
BRANSON        MOSUNNY   73  36  25 SE8G21    29.82F
JOPLIN         SUNNY     76  38  25 S21G28    29.74F
WEST PLAINS    SUNNY     73  31  21 S8        29.83F

$$

IAZ060-094-KSZ022-034>040-054-083-096-NEZ052-066-093-242100-
...KANSAS...SOUTHEAST NEBRASKA AND IOWA...

CITY           SKY/WX    TMP DP  RH WIND       PRES   REMARKS
TOPEKA         CLOUDY    73  44  35 S21G30    29.63F
MANHATTAN      CLOUDY    75  44  33 S24G39    29.58F
EMPORIA        MOSUNNY   71  43  36 S26G37    29.62F
CHANUTE        SUNNY     72  42  34 S24G36    29.69F
WICHITA        PTSUNNY   74  48  39 S31G39    29.60F
OMAHA          CLOUDY    73  36  25 S26G36    29.57F
LINCOLN        MOSUNNY   75  42  30 S25G35    29.56S
FALLS CITY     CLOUDY    71  38  29 S24G36    29.60F
LAMONI         SUNNY     74  31  20 S17G30    29.67F
DES MOINES     MOSUNNY   76  28  17 S28G39    29.66F

$$





USA.gov is the U.S. government's official web portal to all federal, state and local government web resources and services.